When you browse on this site, cookies collect data to enhance your experience and personalize the content and advertising you see.
Visit our Privacy Policy to learn more. By continuing to use the site, you agree to this use of cookies and data.
  • En España
  • Lista de países
  • Para 7 días
  • Temperatura del agua
  • Mapa Satelital
  • El tiempo en el mapa
  • Informadores
  • user-avatar
    Iniciar sesión

    Tiempo cada hora Rangpur

    Hoy, 18 Noviembre, Domingo

    Tiempo Temperatura Precipitaciones Viento Presión Humedad
    00:00 +21°C° 0 mm 1 mps 757 mmHg 52%
    01:00 +21°C° 0 mm 1 mps 757 mmHg 56%
    02:00 +20°C° 0 mm 1 mps 757 mmHg 59%
    03:00 +19°C° 0 mm 2 mps 757 mmHg 62%
    04:00 +19°C° 0 mm 2 mps 758 mmHg 65%
    05:00 +18°C° 0 mm 2 mps 758 mmHg 68%
    06:00 +18°C° 0 mm 2 mps 758 mmHg 70%
    07:00 +19°C° 0 mm 2 mps 759 mmHg 67%
    08:00 +21°C° 0 mm 2 mps 759 mmHg 65%
    09:00 +22°C° 0 mm 3 mps 759 mmHg 62%
    10:00 +25°C° 0 mm 2 mps 759 mmHg 56%
    11:00 +27°C° 0 mm 2 mps 759 mmHg 50%
    12:00 +28°C° 0 mm 3 mps 759 mmHg 44%
    13:00 +28°C° 0 mm 2 mps 758 mmHg 42%
    14:00 +28°C° 0 mm 2 mps 758 mmHg 40%
    15:00 +29°C° 0 mm 2 mps 757 mmHg 38%
    16:00 +27°C° 0 mm 2 mps 757 mmHg 43%
    17:00 +25°C° 0 mm 2 mps 757 mmHg 48%
    18:00 +24°C° 0 mm 2 mps 757 mmHg 53%
    19:00 +23°C° 0 mm 2 mps 758 mmHg 57%
    20:00 +23°C° 0 mm 2 mps 758 mmHg 60%
    21:00 +21°C° 0 mm 2 mps 758 mmHg 64%
    22:00 +21°C° 0 mm 2 mps 758 mmHg 67%
    23:00 +20°C° 0 mm 2 mps 758 mmHg 69%

    Mañana, 19 Noviembre, Lunes

    Tiempo Temperatura Precipitaciones Viento Presión Humedad
    00:00 +20°C° 0 mm 2 mps 758 mmHg 72%
    01:00 +19°C° 0 mm 2 mps 758 mmHg 73%
    02:00 +19°C° 0 mm 2 mps 758 mmHg 75%
    03:00 +18°C° 0 mm 2 mps 758 mmHg 77%
    04:00 +18°C° 0 mm 2 mps 758 mmHg 76%
    05:00 +18°C° 0 mm 2 mps 758 mmHg 76%
    06:00 +18°C° 0 mm 2 mps 759 mmHg 76%
    07:00 +19°C° 0 mm 3 mps 759 mmHg 71%
    08:00 +21°C° 0 mm 3 mps 760 mmHg 66%
    09:00 +22°C° 0 mm 3 mps 760 mmHg 61%
    10:00 +25°C° 0 mm 3 mps 760 mmHg 56%
    11:00 +26°C° 0 mm 3 mps 760 mmHg 52%
    12:00 +28°C° 0 mm 3 mps 759 mmHg 47%
    13:00 +28°C° 0 mm 3 mps 759 mmHg 45%
    14:00 +28°C° 0 mm 2 mps 758 mmHg 44%
    15:00 +28°C° 0 mm 2 mps 757 mmHg 42%
    16:00 +27°C° 0 mm 2 mps 757 mmHg 47%
    17:00 +25°C° 0 mm 1 mps 758 mmHg 51%
    18:00 +24°C° 0 mm 1 mps 758 mmHg 56%
    19:00 +23°C° 0 mm 1 mps 758 mmHg 58%
    20:00 +23°C° 0 mm 1 mps 758 mmHg 60%
    21:00 +22°C° 0 mm 1 mps 759 mmHg 62%
    22:00 +22°C° 0 mm 1 mps 759 mmHg 64%
    23:00 +20°C° 0 mm 2 mps 758 mmHg 67%

    Pasado mañana, 20 Noviembre, Martes

    Tiempo Temperatura Precipitaciones Viento Presión Humedad
    00:00 +20°C° 0 mm 2 mps 758 mmHg 69%
    01:00 +19°C° 0 mm 2 mps 758 mmHg 70%
    02:00 +19°C° 0 mm 2 mps 758 mmHg 71%
    03:00 +19°C° 0 mm 2 mps 758 mmHg 73%
    04:00 +18°C° 0 mm 2 mps 758 mmHg 73%
    05:00 +18°C° 0 mm 2 mps 758 mmHg 72%
    06:00 +18°C° 0 mm 2 mps 758 mmHg 72%
    07:00 +19°C° 0 mm 2 mps 758 mmHg 67%
    08:00 +21°C° 0 mm 2 mps 759 mmHg 62%
    09:00 +22°C° 0 mm 3 mps 760 mmHg 57%
    10:00 +25°C° 0 mm 3 mps 759 mmHg 53%
    11:00 +26°C° 0 mm 2 mps 759 mmHg 49%
    12:00 +28°C° 0 mm 2 mps 758 mmHg 46%
    13:00 +28°C° 0 mm 2 mps 757 mmHg 44%
    14:00 +28°C° 0 mm 1 mps 757 mmHg 42%
    15:00 +28°C° 0 mm 1 mps 756 mmHg 41%
    16:00 +27°C° 0 mm 1 mps 756 mmHg 45%
    17:00 +26°C° 0 mm 1 mps 756 mmHg 49%
    18:00 +24°C° 0 mm 1 mps 757 mmHg 53%
    19:00 +24°C° 0 mm 1 mps 757 mmHg 56%
    20:00 +23°C° 0 mm 2 mps 758 mmHg 59%
    21:00 +23°C° 0 mm 2 mps 758 mmHg 62%
    22:00 +21°C° 0 mm 2 mps 758 mmHg 64%
    23:00 +21°C° 0 mm 2 mps 758 mmHg 67%

    21 Noviembre, Miércoles

    Tiempo Temperatura Precipitaciones Viento Presión Humedad
    00:00 +20°C° 0 mm 2 mps 758 mmHg 70%
    01:00 +20°C° 0 mm 2 mps 758 mmHg 71%
    02:00 +19°C° 0 mm 2 mps 757 mmHg 73%
    03:00 +19°C° 0 mm 2 mps 757 mmHg 74%
    04:00 +18°C° 0 mm 2 mps 757 mmHg 74%
    05:00 +18°C° 0 mm 2 mps 758 mmHg 74%
    06:00 +18°C° 0 mm 2 mps 758 mmHg 75%
    07:00 +19°C° 0 mm 3 mps 759 mmHg 70%
    08:00 +21°C° 0 mm 3 mps 759 mmHg 65%
    09:00 +22°C° 0 mm 3 mps 760 mmHg 60%
    10:00 +25°C° 0 mm 3 mps 759 mmHg 55%
    11:00 +26°C° 0 mm 3 mps 759 mmHg 51%
    12:00 +27°C° 0 mm 3 mps 758 mmHg 46%
    13:00 +28°C° 0 mm 2 mps 758 mmHg 45%
    14:00 +28°C° 0 mm 2 mps 757 mmHg 44%
    15:00 +28°C° 0 mm 2 mps 756 mmHg 42%
    16:00 +27°C° 0 mm 2 mps 756 mmHg 47%
    17:00 +25°C° 0 mm 2 mps 757 mmHg 51%
    18:00 +24°C° 0 mm 2 mps 757 mmHg 55%
    19:00 +23°C° 0 mm 2 mps 758 mmHg 58%
    20:00 +23°C° 0 mm 2 mps 758 mmHg 60%
    21:00 +22°C° 0 mm 1 mps 759 mmHg 63%
    22:00 +21°C° 0 mm 2 mps 759 mmHg 64%
    23:00 +20°C° 0 mm 2 mps 759 mmHg 66%

    22 Noviembre, Jueves

    Tiempo Temperatura Precipitaciones Viento Presión Humedad
    00:00 +20°C° 0 mm 2 mps 759 mmHg 68%
    01:00 +19°C° 0 mm 2 mps 758 mmHg 69%
    02:00 +19°C° 0 mm 2 mps 758 mmHg 70%
    03:00 +19°C° 0 mm 2 mps 758 mmHg 72%
    04:00 +18°C° 0 mm 2 mps 758 mmHg 72%
    05:00 +18°C° 0 mm 2 mps 758 mmHg 72%
    06:00 +18°C° 0 mm 2 mps 759 mmHg 72%
    07:00 +19°C° 0 mm 3 mps 759 mmHg 67%
    08:00 +21°C° 0 mm 3 mps 760 mmHg 62%
    09:00 +22°C° 0 mm 3 mps 760 mmHg 57%
    10:00 +25°C° 0 mm 3 mps 760 mmHg 52%
    11:00 +26°C° 0 mm 4 mps 759 mmHg 46%
    12:00 +28°C° 0 mm 4 mps 759 mmHg 41%
    13:00 +28°C° 0 mm 3 mps 758 mmHg 40%
    14:00 +28°C° 0 mm 3 mps 757 mmHg 39%
    15:00 +29°C° 0 mm 3 mps 757 mmHg 38%
    16:00 +27°C° 0 mm 3 mps 757 mmHg 43%
    17:00 +25°C° 0 mm 2 mps 757 mmHg 48%
    18:00 +24°C° 0 mm 2 mps 757 mmHg 53%
    19:00 +23°C° 0 mm 2 mps 758 mmHg 55%
    20:00 +22°C° 0 mm 1 mps 758 mmHg 58%
    21:00 +22°C° 0 mm 1 mps 759 mmHg 60%
    22:00 +21°C° 0 mm 1 mps 759 mmHg 60%
    23:00 +20°C° 0 mm 2 mps 759 mmHg 60%

    23 Noviembre, Viernes

    Tiempo Temperatura Precipitaciones Viento Presión Humedad
    00:00 +20°C° 0 mm 2 mps 759 mmHg 60%
    01:00 +19°C° 0 mm 2 mps 758 mmHg 61%
    02:00 +19°C° 0 mm 2 mps 758 mmHg 61%
    03:00 +19°C° 0 mm 2 mps 758 mmHg 61%
    04:00 +18°C° 0 mm 2 mps 758 mmHg 62%
    05:00 +18°C° 0 mm 2 mps 758 mmHg 63%
    06:00 +18°C° 0 mm 2 mps 758 mmHg 64%
    07:00 +19°C° 0 mm 2 mps 759 mmHg 60%
    08:00 +21°C° 0 mm 2 mps 759 mmHg 57%
    09:00 +23°C° 0 mm 2 mps 760 mmHg 54%
    10:00 +25°C° 0 mm 2 mps 759 mmHg 50%
    11:00 +27°C° 0 mm 2 mps 759 mmHg 46%
    12:00 +28°C° 0 mm 2 mps 758 mmHg 42%
    13:00 +28°C° 0 mm 2 mps 758 mmHg 41%
    14:00 +29°C° 0 mm 2 mps 757 mmHg 39%
    15:00 +29°C° 0 mm 1 mps 756 mmHg 38%
    16:00 +28°C° 0 mm 1 mps 757 mmHg 42%
    17:00 +26°C° 0 mm 1 mps 757 mmHg 47%
    18:00 +24°C° 0 mm 1 mps 757 mmHg 51%
    19:00 +24°C° 0 mm 1 mps 757 mmHg 53%
    20:00 +23°C° 0 mm 1 mps 758 mmHg 56%
    21:00 +22°C° 0 mm 1 mps 758 mmHg 58%
    22:00 +22°C° 0 mm 1 mps 758 mmHg 60%
    23:00 +21°C° 0 mm 1 mps 758 mmHg 62%
    Mostrar más